weather.gov     
National Weather Service

Terminal Aerodrome Forecast
NWS Homepage
This page is being discontinued on March 12, 2014.
The same data is available at this site. Please update your bookmarks.
Thank you, and we apologize for the inconvenience.
Please send an email to SR-SRH.Webmaster@noaa.gov with any concerns.


Current Version
Previous Version:    01  02  03  04  05  06  07  08  09  10  11  12  13  14  15  16  17  18  19  20  21  22  23  24  25  26  27  28  29  30  
   31  32  33  34  35  36  37  38  39  40  41  42  43  44  45  46  47  
[Printable]
700
FTUS46 KHNX 230942 AAA
TAFMER
TAF AMD
KMER 230942Z 2310/2406 36013KT 5SM BR OVC004
     FM231200 33004KT 1/2SM FG OVC002
     FM231800 33005KT 1 1/2SM BR BKN007
     FM231900 32006KT 4SM HZ FEW150
     FM240400 VRB03KT 2SM BR FEW150=


700
FTUS46 KHNX 230942 AAA
TAFMER
TAF AMD
KMER 230942Z 2310/2406 36013KT 5SM BR OVC004
     FM231200 33004KT 1/2SM FG OVC002
     FM231800 33005KT 1 1/2SM BR BKN007
     FM231900 32006KT 4SM HZ FEW150
     FM240400 VRB03KT 2SM BR FEW150=




U.S. Dept. of Commerce
NOAA National Weather Service
1325 East West Highway
Silver Spring, MD 20910
E-mail: w-nws.webmaster@noaa.gov
Page last modified: May 16, 2007
NATIONAL WEATHER SERVICE: for Safety, for Work, for Fun - FOR LIFE